DECAYED

CZ-6A DEB, 55007 (Decayed)

Orbit data source: Space-Track

CZ-6A DEB, 55007 was space debris in SSO originally from a launch on Fri, 11 Nov 2022 UTC launched from the Taiyaun Space Center, China (TSC). Debris objects in space refer to the collection of defunct objects orbiting the Earth. Examples of debris include non-operational satellites, rocket bodies, and fragments generated from explosions, collisions, or faulty payload assembly.

Not visible in the next 10 days
Identifier
55007, 2022-151UX
Orbit
Decayed
Country
Flag of CNCN / PRC
Related business
Manufacturer
SAST
Mission
Decayed spacecraft
Bus & Motor
Unknown
Mass
Unknown
Launch date (UTC)
2022-11-11 (4 years ago)
Launch vehicle
Unknown
Launch site
Taiyaun Space Center, China (TSC)
Object type
Payload
Rocket body
Debris
Shape & HBR
Unknown shape, 0.1 m
Radar Cross Section
Medium (>0.1 m² and <1 m²)

Expand to show TLE details & history
Last TLE update: 3 months ago

TLE from 3 months ago
0 CZ-6A DEB
1 55007U 22151UX  26085.19399784  .05634389  64149-1  18457-1 0  9998
2 55007  98.5982 177.1309 0014994 303.6004  56.3837 15.96578707178723
Epoch: 2026-03-26T04:39Z
TLE epoch observation values (Epoch: 2026-03-26T04:39:21.413Z)
Latitude
-0°
Longitude
-76.35477°
Altitude
281.553 km
Speed
7.742 km/s
True Right ascension
11h 48m 31s
True Declination
0° 00' 00"
Sunlit
Object was in full shadow at epoch
Visualization orbit readout
Latitude
Unknown
Longitude
Unknown
Altitude
Unknown
Speed
Unknown
Apparent Right ascension
Unknown
Apparent Declination
Unknown
Sunlit
N/A
Visualization observer readout
Local Sidereal Time
21:38:02
Azimuth
Unknown
Elevation
Unknown
Doppler factor
Unknown
Orbital elements
Apogee altitude
290.825 km
Perigee altitude
270.856 km
Semi-major axis
6,658.977 km
Eccentricity
0.0015
Inclination
98.5982°
RAAN
177.1309°
Arg. of periapsis
303.6004°
True anomaly
56.52693°
Mean anomaly
56.3837°
Eccentric anomaly
56.4553°
Mean motion
3.99422 °/min
Orbital period
90.13 mins
BSTAR
0.018457
Loading maneuver chart data...
Computing Atmospheric mass density...
Loading historical data...
Loading historical data...
Loading historical data...
Loading historical data...
Loading historical data...
Loading historical data...
Loading historical data...

Documentation

Showing up to 5 results
|